www.pogodaiklimat.ru

Погода и климат >> Архив погоды >> Иран >> Арак


ПОГОДА в Араке

  • Прогноз погоды в Араке
  • Монитор погоды в Араке

АРХИВ ПОГОДЫ в Араке

Время (UTC), дата Ветер
(напр.,м/с)
 
Видим.   Явления Облачность Т
(С)
Тd
(С)
f
(%)
Тe
(С)
Тes
(С)
Комфортность P
(гПа)
Po
(гПа)
Тmin
(С)
Tmax
(С)
R
(мм)
R24
(мм)
S
(см)
18 10.09 штиль 0 7000 м пыль ясно +20.2 +3.7 34 +20 +20 1006.5 829.4
21 10.09 СЗ 2 7000 м пыль ясно +17.8 +3.8 39 +18 +18 1005.9 829.7
00 11.09 штиль 0 7000 м пыль ясно +16.8 +5.4 47 +17 +17 1004.5 828.7
03 11.09 СЗ 1 8000 м пыль ясно +15.2 +3.7 46 +16 +16 1009.0 830.7 +15.2 666
06 11.09 штиль 0 8000 м пыль ясно +22.8 +1.6 25 +22 +35 комфорт 1008.4 831.4
09 11.09 СВ 4 8000 м пыль ясно +27.2 +0.2 17 +25 +36 комфорт 1006.1 830.0 666
12 11.09 В 4 8000 м пыль ясно +28.6 +0.4 16 +26 +31 жарко 1004.5 828.4
15 11.09 СВ 5 8000 м пыль ясно +23.8 +0.2 21 +23 +23 комфорт 1006.5 828.7 +29.0 666
18 11.09 штиль 0 8000 м пыль ясно +20.2 +3.7 34 +20 +20 1006.5 829.4
21 11.09 штиль 0 8000 м пыль ясно +17.8 +2.7 36 +18 +18 1007.0 830.8
00 12.09 З 2 8000 м пыль ясно +17.0 +4.2 43 +17 +17 1006.4 830.6
03 12.09 штиль 0 8000 м пыль ясно +15.0 +2.3 42 +15 +15 1009.9 831.5 +14.6 666
06 12.09 ЮВ 1 10 км ясно +21.0 +3.3 31 +23 +34 комфорт 1009.3 831.7
09 12.09 С 2 8000 м пыль ясно +26.0 +2.6 22 +25 +41 комфорт 1006.0 829.7 666
12 12.09 СВ 6 6000 м пыль ясно +27.8 +3.6 21 +26 +29 жарко 1003.6 828.0
15 12.09 СВ 4 6000 м пыль ясно +22.0 +3.3 29 +22 +22 комфорт 1006.4 828.2 +29.2 666
18 12.09 штиль 0 7000 м пыль ясно +20.6 +1.4 28 +21 +21 комфорт 1006.7 829.6
21 12.09 штиль 0 7000 м пыль ясно +18.2 +1.0 31 +18 +18 1005.3 829.1
00 13.09 СЗ 3 7000 м пыль ясно +15.2 +2.0 41 +15 +15 1005.4 828.9
03 13.09 СЗ 2 8000 м пыль ясно +14.4 +4.6 52 +14 +14 1008.9 830.1 +14.0 666
06 13.09 штиль 0 7000 м пыль ясно +20.0 +5.0 37 +20 +33 опасность
простуды
1008.6 831.0
09 13.09 В 1 7000 м пыль ясно +24.8 +4.6 27 +24 +43 комфорт 1006.5 829.9 666
12 13.09 СВ 4 7000 м пыль 1/1 1050 м
[Cu hum]
+27.0 +8.2 30 +27 +31 жарко 1004.2 828.0
15 13.09 В 2 8000 м пыль 1/1 1000 м
[Sc diur, vesp]
+22.4 +3.4 29 +22 +22 комфорт 1007.8 829.3 +28.2 666
18 13.09 штиль 0 8000 м пыль ясно +19.6 +4.4 37 +20 +20 1009.0 831.1
21 13.09 З 2 8000 м мгла ясно +17.8 +3.8 39 +18 +18 1008.5 831.4
00 14.09 С 1 7000 м мгла ясно +16.4 +3.8 43 +17 +17 1008.3 831.5
03 14.09 С 2 8000 м мгла ясно +15.0 +4.4 49 +15 +15 1011.6 832.6 +13.6 666
06 14.09 В 2 9000 м мгла ясно +20.2 +4.2 35 +21 +31 комфорт 1011.9 833.6
09 14.09 В 3 8000 м мгла ясно +25.6 +4.2 25 +25 +38 комфорт 1008.9 832.0 666
12 14.09 СВ 4 10 км ясно +27.8 +4.7 23 +27 +31 жарко 1007.2 830.8
15 14.09 СВ 4 10 км ясно +22.8 +4.6 31 +23 +23 комфорт 1009.6 831.1 +29.0
18 14.09 СВ 2 10 км ясно +19.8 +1.2 29 +21 +21 комфорт 1010.3 832.1
21 14.09 штиль 0 10 км ясно +18.4 +2.4 34 +18 +18 1009.3 832.5
00 15.09 З 2 10 км ясно +17.0 +3.6 41 +17 +17 1009.1 832.5
03 15.09 штиль 0 7000 м мгла ясно +13.8 +2.2 45 +14 +14 1012.3 832.9 +13.4
06 15.09 СВ 2 8000 м мгла ясно +22.0 +2.6 28 +22 +31 комфорт 1011.7 833.9
09 15.09 СВ 2 8000 м мгла ясно +28.2 +0.9 17 +26 +42 жарко 1008.6 832.5
12 15.09 В 3 7000 м пыль ясно +30.6 +2.0 16 +28 +34 жарко 1007.0 831.5
15 15.09 В 3 8000 м пыль ясно +25.4 +3.9 25 +25 +25 комфорт 1010.3 832.1 +31.2
18 15.09 штиль 0 10 км ясно +21.2 +5.2 35 +22 +22 комфорт 1011.5 834.2
21 15.09 З 2 10 км ясно +18.6 +4.9 40 +19 +19 1010.6 834.4
00 16.09 штиль 0 10 км ясно +16.8 +3.3 40 +17 +17 1010.5 834.4
03 16.09 штиль 0 10 км ясно +13.6 +4.0 52 +13 +14 1013.6 834.7 +13.6
06 16.09 штиль 0 8000 м мгла ясно +24.6 +2.3 23 +24 +36 комфорт 1011.9 835.1
09 16.09 С 3 10 км 1/1 1050 м
[Cu hum]
+31.8 -0.6 12 +28 +40 жарко 1008.9 833.7 666
12 16.09 штиль 0 10 км 3/3 1050 м
[Cu hum]
+33.4 -4.3 9 +29 +36 жарко 1007.2 832.2
15 16.09 В 2 10 км 3/3 1050 м
[Sc diur, vesp]
+27.0 +0.5 18 +25 +25 комфорт 1010.0 832.0 +33.6 666
18 16.09 штиль 0 10 км ясно +23.4 +3.2 27 +23 +23 комфорт 1010.0 834.1
21 16.09 штиль 0 10 км ясно +19.0 +2.8 34 +19 +19 1009.2 834.1
00 17.09 штиль 0 10 км ясно +15.0 +4.4 49 +15 +15 1009.0 833.4
03 17.09 штиль 0 10 км 1/0
[Ci fib]
+14.2 +4.3 51 +14 +14 1012.4 834.3 +14.2 666
06 17.09 СВ 2 6000 м мгла ясно +24.6 +4.2 27 +24 +33 комфорт 1011.0 834.9
09 17.09 В 2 7000 м пыль 1/1 1200 м
[Cu hum]
+31.8 +3.8 17 +29 +43 жарко 1008.1 833.3
12 17.09 Ю 2 7000 м пыль 3/3 1200 м
[Cu hum]
+33.2 +2.8 15 +30 +35 жарко 1006.3 831.1
15 17.09 штиль 0 8000 м пыль 3/3 1200 м
[Sc diur, vesp Ci fib]
+29.4 +7.0 24 +28 +28 жарко 1007.0 830.6 +34.6

 

Местоположение метеостанции Арак (Иран): широта 34.10 долгота 49.77 высота над уровнем моря 1708 м.

В архиве по умолчанию представлена погода в Араке за последнюю неделю. Архивные данные за месяц целиком и за предыдущие месяцы, начиная с января 2011 года, Вы можете получить, выбрав интересующий диапазон дат из раскрывающегося списка и нажав кнопку "Ввод!".


*Определитесь, кто Вы:
робот инопланетянин человек

Внимание! Время в таблицах - всемирное. Для получения местного времени необходимо прибавить поправку, которая равна 3.5 ч.

Смотрите также архив погоды в соседних городах и на ближайших метеорологических станциях:

Погода в Элигудерзе (Иран) (78 км)
Погода в Хамадане (Иран) (141 км)
Погода в Хорремабаде (Иран) (147 км)
Погода в Кашане (Иран) (155 км)
Погода в Тегеране (Иран) (226 км)
Погода в Шехре-Корде (Иран) (226 км)
Погода в Сафиабаде (Иран) (239 км)
Погода в Казвине (Иран) (240 км)
Погода в Месджеде-Солеймане (Иран) (240 км)
Погода в Керманшахе (Иран) (245 км)

Пояснения к столбцам:

Ветер - указаны скорость ветра в м/с - средняя за 10 мин, порывы в срок и между сроками (в фигурных скобках) и направление, откуда дует ветер: С - северный, СВ - северо-восточный, В - восточный, ЮВ - юго-восточный, Ю - южный, ЮЗ - юго-западный, З - западный, СЗ - северо-западный.
Видимость - горизонтальная дальность видимости в метрах или километрах. При видимости от 1 до 10 км при отсутствии осадков обычно наблюдается дымка, при ухудшении видимости до 1 км и менее - туман. В сухую погоду видимость может ухудшаться дымом, пылью или мглою.
Явления - указаны атмосферные явления, наблюдавшиеся в срок или в последний час перед сроком; фигурными скобками обозначены явления, наблюдавшиеся между сроками (за 1-3 часа до срока); квадратными скобками обозначены град или гололедные отложения с указанием их диаметра в мм.
Облачность - указаны через наклонную черту общая и нижняя облачность в баллах и высота нижней границы облаков в метрах; квадратными скобками обозначены формы облаков: Ci - перистые, Cs - перисто-слоистые, Cc - перисто-кучевые, Ac - высококучевые, As - высокослоистые, Sc - слоисто-кучевые, Ns - слоисто-дождевые, Cu - кучевые, Cb - кучево-дождевые. Подробнее классификацию облаков см. в Атласе облаков (PDF).
T - Температура воздуха - температура, измеренная на высоте 2 м над землей.
Td - Температура точки росы - температура, при понижении до которой содержащийся в воздухе водяной пар достигнет насыщения.
f - Относительная влажность воздуха - влажноcть воздуха, измеренная на высоте 2 м над землей.
Te - Эффективная температура - температура, которую ощущает одетый по сезону человек в тени. Характеристика душности погоды. При расчете учитывается влияние влажности воздуха и скорости ветра на теплоощущения человека.
Tes - Эффективная температура на солнце - температура, которую ощущает человек, с поправкой на солнечный нагрев. Характеристика знойности погоды. Зависит от высоты солнца над горизонтом, облачности и скорости ветра. Ночью, в пасмурную погоду, а также при ветре 12 м/с и более поправка равна нулю.
P - Атмосферное давление - приведенное к уровню моря атмосферное давление.
Po - Атмосферное давление - измеренное на уровне метеостанции атмосферное давление.
Tmin - Минимальная температура - минимум температуры воздуха на высоте 2 м над землей.
Tmax - Максимальная температура - максимум температуры воздуха на высоте 2 м над землей.
R - Количество осадков - Количество выпавших осадков за период времени, мм. При наведении курсора мыши на число - период времени, за который выпало указанное количество осадков.
R24 - Количество осадков - Количество выпавших осадков за 24 часа, мм.
S - Снежный покров - Высота снежного покрова, см. При наведении курсора мыши на число - состояние снежного покрова и степень покрытия местности в баллах.